Tracking 29892 objects as of 21-Nov-2024
HD Live streaming from Space Station
objects crossing your sky now

METEOR 2-19

Track METEOR 2-19 now!
10-day predictions
METEOR 2-19 is classified as:


NORAD ID: 20670
Int'l Code: 1990-057A
Perigee: 943.1 km
Apogee: 964.8 km
Inclination: 82.5 °
Period: 104.0 minutes
Semi major axis: 7324 km
RCS: 3.921 m2 (large)
Launch date: June 27, 1990
Source: Commonwealth of Independent States (former USSR) (CIS)
Launch site: PLESETSK MISSILE AND SPACE COMPLEX (PKMTR)
Your satellite tracking list
Your tracking list is empty




NASA's NSSDC Master Catalog

Two Line Element Set (TLE):
1 20670U 90057A   24326.02399984  .00000067  00000-0  46722-4 0  9995
2 20670  82.5480  14.6993 0014836 250.8640 109.0914 13.84831796738577
Source of the keplerian elements: AFSPC